Weather observations for the past three days for
Grand Prairie, Grand Prairie Municipal Airport
Imperial (Metric)
Date Time (cdt) Wind (mph) Vis. (mi.) Weather Sky Cond. Temperature (ºF) Relative Humidity Wind Chill (°F) Heat Index (°F) Pressure Precipitation (in)
Air Dwpt 6 hour altimeter (in) sea level (mb) 1 hr 3 hr 6 hr
Max. Min.
14 01:35 Calm 10.00 Fair CLR 80.4 65.3 60% 82 29.97 0.0
14 01:15 Calm 10.00 Fair CLR 80.8 64.8 58% 83 29.98 0.0
14 00:55 S 3 10.00 Fair CLR 81.3 63.7 91.6 80.2 55% 83 29.98 0.0
14 00:35 Calm 10.00 Fair CLR 81 63.5 55% 82 29.98 0.0
14 00:15 SE 3 10.00 Fair CLR 81.3 63.9 55% 83 29.98 0.0
13 23:55 SE 3 10.00 Fair CLR 81.1 64.6 57% 83 29.97 0.0
13 23:35 SE 3 10.00 Fair CLR 81.5 64.9 57% 83 29.96 0.0
13 23:15 SE 3 10.00 Fair CLR 82 65.7 58% 84 29.96 0.0
13 22:55 SE 5 10.00 Fair CLR 82.8 65.3 56% 85 29.94 0.0
13 22:35 SE 6 10.00 Fair CLR 83.3 66.4 57% 86 29.93 0.0
13 22:15 SE 7 10.00 Fair CLR 83.3 66.9 58% 86 29.92 0.0
13 21:55 SE 6 10.00 Fair CLR 84.2 66.9 56% 87 29.91 0.0
13 21:35 SE 8 10.00 Fair CLR 85.1 67.3 55% 88 29.91 0.0
13 21:15 SE 7 10.00 Fair CLR 86 67.5 54% 89 29.91 0.0
13 20:50 SE 6 10.00 Clear SKC 89.6 66.2 46% 92 29.91 0.0
13 19:50 SE 6 10.00 Clear SKC 89.6 66.2 46% 92 29.91 0.0
13 18:50 S 5 10.00 Clear SKC 91.4 64.4 41% 93 29.91 0.0
13 17:50 S 3 10.00 Clear SKC 91.4 64.4 41% 93 29.92 0.0
13 16:50 SE 7 10.00 Clear SKC 91.4 64.4 41% 93 29.95 0.0
13 15:50 S 5 10.00 Clear SKC 91.4 64.4 41% 93 29.95 0.0
13 13:50 S 5 10.00 Partly Cloudy SCT047 89.6 66.2 46% 92 29.99 0.0
13 12:50 SE 9 10.00 Partly Cloudy SCT039 87.8 69.8 55% 93 30 0.0
13 11:50 SE 9 10.00 Partly Cloudy SCT033 86 69.8 59% 91 30 0.0
13 10:50 SE 9 10.00 Clear SKC 84.2 68 58% 87 30 0.0
13 09:50 SE 9 10.00 Clear SKC 82.4 66.2 58% 85 30 0.0
13 08:50 S 6 10.00 Clear SKC 80.6 66.2 62% 83 30 0.0
13 07:50 S 7 10.00 Clear SKC 77 66.2 69% 79 29.98 0.0
13 06:50 S 3 10.00 Clear SKC 75.2 66.2 74% 77 29.96 0.0
13 06:35 Calm 10.00 Fair CLR 74.8 66.2 75% 29.95 0.0
13 06:15 S 3 10.00 Fair CLR 75 66.4 75% 76 29.95 0.0
13 05:55 S 3 10.00 Fair CLR 75.2 67.1 76% 76 29.94 0.0
13 05:35 Calm 10.00 Fair CLR 75.6 67.1 75% 77 29.94 0.0
13 05:15 Calm 10.00 Fair CLR 75.4 67.1 76% 77 29.94 0.0
13 04:55 SE 3 10.00 Fair CLR 75.4 67.3 76% 77 29.94 0.0
13 04:35 S 3 10.00 Fair CLR 75 67.5 77% 76 29.94 0.0
13 04:15 Calm 10.00 Fair CLR 75.4 67.5 77% 76 29.94 0.0
13 03:55 Calm 10.00 Fair CLR 76.1 67.5 75% 78 29.94 0.0
13 03:35 SE 5 10.00 Fair CLR 76.1 67.5 75% 78 29.94 0.0
13 03:15 SE 3 10.00 Fair CLR 75.6 67.6 77% 77 29.95 0.0
13 02:55 Calm 10.00 Fair CLR 75.7 67.8 77% 77 29.95 0.0
13 02:35 Calm 10.00 Fair CLR 76.3 67.6 75% 78 29.95 0.0
13 02:15 Calm 10.00 Fair CLR 77 67.5 73% 79 29.95 0.0
13 01:55 Calm 10.00 Fair CLR 77 67.3 72% 79 29.95 0.0
13 01:35 Calm 10.00 Fair CLR 77.2 67.1 71% 79 29.95 0.0
13 01:15 SE 3 10.00 Fair CLR 77.5 67.1 70% 79 29.96 0.0
13 00:55 SE 3 10.00 Fair CLR 77.9 67.1 87.6 77.9 70% 80 29.96 0.0
13 00:35 Calm 10.00 Fair CLR 78.3 67.1 69% 80 29.97 0.0
13 00:15 Calm 10.00 Fair CLR 78.8 67.1 67% 81 29.97 0.0
12 23:55 SE 3 10.00 Fair CLR 79.2 66.9 66% 81 29.97 0.0
12 23:35 SE 3 10.00 Fair CLR 79.7 67.1 65% 82 29.97 0.0
12 23:15 SE 5 10.00 Fair CLR 79.9 67.1 65% 82 29.96 0.0
12 22:55 SE 3 10.00 Fair CLR 80.1 67.1 65% 82 29.95 0.0
12 22:35 SE 5 10.00 Fair CLR 80.4 67.1 64% 83 29.95 0.0
12 22:15 SE 3 10.00 Fair CLR 81 66.7 62% 83 29.94 0.0
12 21:55 SE 5 10.00 Fair CLR 81.5 66.7 61% 84 29.94 0.0
12 21:35 SE 6 10.00 Fair CLR 82.2 66.7 60% 85 29.93 0.0
12 21:15 SE 3 10.00 Fair CLR 82.8 67.1 59% 85 29.93 0.0
12 20:50 SE 7 10.00 Clear SKC 82.4 66.2 58% 85 29.93 0.0
12 19:50 SE 7 10.00 Clear SKC 86 66.2 52% 88 29.92 0.0
12 17:50 SE 7 10.00 Partly Cloudy SCT042 87.8 66.2 49% 90 29.92 0.0
12 16:50 E 7 10.00 Partly Cloudy SCT070 87.8 68 52% 91 29.95 0.0
12 15:50 E 5 10.00 Partly Cloudy SCT070 87.8 68 52% 91 29.95 0.0
12 14:50 E 5 10.00 Mostly Cloudy SCT045 SCT060 BKN095 87.8 68 52% 91 29.97 0.0
12 13:50 E 5 10.00 Mostly Cloudy BKN039 BKN045 86 68 55% 89 29.99 0.0
12 12:50 Calm 10.00 Partly Cloudy SCT036 SCT042 86 68 55% 89 30.01 0.0
12 11:50 SE 5 10.00 Clear SKC 84.2 66.2 55% 87 30.02 0.0
12 10:50 SE 3 10.00 Clear SKC 82.4 66.2 58% 85 30.02 0.0
12 09:50 S 5 10.00 Clear SKC 80.6 66.2 62% 83 30.03 0.0
12 08:50 SE 6 10.00 Clear SKC 78.8 66.2 65% 81 30.01 0.0
12 07:50 E 6 10.00 Clear SKC 75.2 64.4 69% 77 30 0.0
12 06:50 Calm 10.00 Overcast BKN040 OVC049 73.4 66.2 78% 30 0.0
12 06:35 Calm 10.00 Mostly Cloudy SCT050 BKN055 BKN070 74.8 66.2 75% 29.99 0.0
12 06:15 Calm 10.00 Mostly Cloudy SCT040 BKN050 BKN070 74.1 66.6 77% 29.99 0.0
12 05:55 Calm 10.00 Overcast BKN036 OVC045 74.5 66.4 76% 29.99 0.0
12 05:35 Calm 10.00 Partly Cloudy SCT036 SCT047 74.3 66.4 76% 29.99 0.0
12 05:15 Calm 10.00 Partly Cloudy SCT100 74.5 66.4 76% 29.98 0.0
12 04:55 E 3 10.00 Fair CLR 74.5 66.6 76% 29.97 0.0
12 04:35 E 3 10.00 Partly Cloudy SCT100 75.2 66.4 74% 76 29.97 0.0
12 04:20 E 3 10.00 Partly Cloudy SCT100 75.4 66.7 75% 77 29.97 0.0
12 03:55 E 6 10.00 Mostly Cloudy BKN040 BKN055 BKN085 76.3 67.3 74% 78 29.97 0.0
12 03:35 NE 5 10.00 Overcast OVC040 76.3 68 76% 78 29.97 0.0
12 03:15 NE 3 10.00 Overcast OVC040 76.6 68 75% 78 29.97 0.0
12 02:55 Calm 10.00 Overcast OVC040 76.3 68.4 77% 78 29.98 0.0
12 02:35 NE 3 10.00 Overcast OVC040 76.3 68.5 77% 78 29.97 0.0
12 02:15 Calm 10.00 Overcast SCT040 BKN047 OVC120 76.3 68.4 77% 78 29.97 0.0
12 01:55 Calm 10.00 Overcast BKN041 OVC120 76.3 68.4 77% 78 29.97 0.0
12 01:35 NE 3 10.00 Overcast BKN039 OVC120 76.6 68 75% 78 29.97 0.0
12 01:15 NE 3 10.00 Overcast SCT039 OVC120 76.5 68.2 76% 78 29.97 0.0
12 00:55 NE 3 10.00 Overcast BKN039 OVC110 76.5 68.4 80.1 75.4 76% 78 29.97 0.0
12 00:35 NE 5 10.00 Overcast BKN039 OVC110 76.5 68.2 76% 78 29.97 0.0
12 00:15 NE 3 10.00 Mostly Cloudy SCT039 BKN110 76.1 68.4 77% 77 29.98 0.0
11 23:55 NE 3 10.00 Partly Cloudy SCT120 76.1 67.6 75% 77 29.97 0.0
11 23:35 Calm 10.00 Fair CLR 76.1 67.8 76% 77 29.96 0.0
11 23:15 Calm 10.00 Fair CLR 75.4 68 78% 76 29.95 0.0
11 22:55 Calm 10.00 Partly Cloudy SCT100 76.5 68 75% 78 29.94 0.0
11 22:35 Calm 10.00 Partly Cloudy SCT100 76.5 68.2 76% 78 29.93 0.0
11 22:15 Calm 10.00 Fair CLR 76.3 68.5 77% 78 29.92 0.0
11 21:55 E 5 10.00 Partly Cloudy SCT100 SCT120 77.2 68.4 74% 79 29.92 0.0
11 21:35 Calm 10.00 Overcast OVC110 77.4 68.5 74% 79 29.92 0.0
11 21:15 E 5 10.00 Overcast OVC110 77.5 68.2 73% 79 29.92 0.0
11 20:50 Calm 10.00 Clear SKC 80.6 68 66% 83 29.9 0.0
11 19:50 Calm 10.00 Clear SKC 80.6 68 66% 83 29.9 0.0
11 17:50 Calm 10.00 Clear SKC 78.8 66.2 65% 81 29.91 0.0
11 15:50 Calm 10.00 Clear SKC 77 68 74% 79 29.93 0.0
11 14:50 Calm 10.00 Mostly Cloudy SCT090 BKN120 75.2 68 78% 76 29.95 0.0
11 13:50 Calm 10.00 Mostly Cloudy SCT018 BKN050 75.2 66.2 74% 77 29.97 0.0
11 12:50 Calm 10.00 Mostly Cloudy SCT018 SCT024 BKN037 80.6 71.6 74% 85 29.97 0.0
11 11:50 S 3 10.00 Overcast OVC020 78.8 69.8 74% 81 29.98 0.0
11 10:50 SE 6 10.00 Overcast OVC016 78.8 69.8 74% 81 29.95 0.0
11 09:50 SE 6 10.00 Partly Cloudy SCT 78.8 69.8 74% 81 29.94 0.0
11 08:50 E 6 10.00 Overcast OVC010 77 68 74% 79 29.93 0.0
11 07:50 E 5 10.00 Overcast OVC012 73.4 66.2 78% 29.95 0.0
11 06:50 E 5 10.00 Overcast SCT014 OVC020 73.4 66.2 78% 29.94 0.0
11 06:35 E 7 10.00 Overcast OVC014 72.9 66.7 81% 29.93 0.0
11 06:15 E 6 10.00 Overcast OVC014 73.4 67.1 81% 29.93 0.0
11 05:35 E 6 10.00 Overcast OVC014 73.4 67.1 81% 29.93 0.0
11 05:15 E 6 10.00 Overcast OVC016 73.6 67.1 80% 29.93 0.0
11 04:55 E 5 10.00 Overcast OVC016 73.8 67.1 80% 29.93 0.0
11 04:35 E 6 10.00 Overcast OVC018 73.8 67.1 80% 29.93 0.0
11 04:15 E 3 10.00 Overcast BKN018 OVC025 73.6 67.1 80% 29.92 0.0
11 03:55 E 5 10.00 Overcast SCT016 OVC027 73.4 67.1 81% 29.92 0.0
11 03:35 E 3 10.00 Overcast OVC027 73.6 67.1 80% 29.92 0.0
11 03:15 Calm 10.00 Mostly Cloudy BKN029 73.6 67.3 81% 29.93 0.0
11 02:55 Calm 10.00 Partly Cloudy SCT029 73.6 67.3 81% 29.93 0.0
11 02:35 Calm 10.00 Mostly Cloudy BKN031 74.1 67.5 80% 29.93 0.0
11 02:15 Calm 10.00 Partly Cloudy SCT033 74.1 67.1 79% 29.93 0.0
11 01:55 E 3 10.00 Fair CLR 74.3 67.1 78% 29.93 0.0
Date Time (cdt) Wind (mph) Vis. (mi.) Weather Sky Cond. Air Dwpt Max. Min. Relative Humidity Wind Chill (°F) Heat Index (°F) altimeter (in) sea level (mb) 1 hr 3 hr 6 hr
6 hour
Temperature (ºF) Pressure Precipitation (in)